Regional Weather Roundup
Issued by NWS

Home | Current Version | Previous Version | Text Only | Print | Product List | Glossary Off
Versions: 1 2 3 4 5 6 7 8 9 10 11 12 13 14 15 16 17 18 19 20 21 22 23 24 25 26 27 28 29 30 31 32 33 34 35 36 37 38 39 40 41 42 43 44 45 46 47 48 49 50

000
ASUS45 KCYS 031110
RWRWY

WYOMING REGIONAL WEATHER ROUNDUP
NATIONAL WEATHER SERVICE CHEYENNE WY
500 AM MDT MON AUG 03 2015

NOTE:  "FAIR" INDICATES FEW OR NO CLOUDS BELOW 12,000 FEET
WITH NO SIGNIFICANT WEATHER AND/OR OBSTRUCTIONS TO VISIBILITY.

WYZ001-031200-
YELLOWSTONE NATIONAL PARK

CITY           SKY/WX    TMP DP  RH WIND       PRES   REMARKS
LK YELLOWSTONE   N/A     45  37  73 CALM      30.25F
W YELLOWSTONE  NOT AVBL

$$
WYZ002>013-054>058-071-098>099-031200-
NORTHERN WYOMING

CITY           SKY/WX    TMP DP  RH WIND       PRES   REMARKS
JACKSON        NOT AVBL
CODY           FAIR      64  39  39 SW7       30.07S
GREYBULL       FAIR      61  41  47 CALM      29.98S
WORLAND        FAIR      59  39  47 CALM      30.00F
SHERIDAN       FAIR      52  45  77 S5        30.01F
BUFFALO        FAIR      63  44  50 S3        30.08S
GILLETTE       FAIR      53  47  79 CALM      30.05F
HULETT         FAIR      54  48  82 S5        30.06S
NEWCASTLE      FAIR      59  46  63 MISG      30.04S

$$
WYZ014>020-022>026-101>103-031200-
CENTRAL WYOMING

CITY           SKY/WX    TMP DP  RH WIND       PRES   REMARKS
BIG PINEY      FAIR      58  35  42 E8        30.18S
PINEDALE       FAIR      52  37  58 E3        30.20S
DUBOIS         NOT AVBL
LANDER         FAIR      64  37  36 W10       30.08S
RIVERTON       FAIR      67  49  52 NE9       30.08S
CASPER         FAIR      57  50  77 N6        30.09R
DOUGLAS        FAIR      58  52  80 CALM      30.06S

$$
WYZ021-027>030-104>119-031200-
SOUTHERN WYOMING

CITY           SKY/WX    TMP DP  RH WIND       PRES   REMARKS
EVANSTON       MOCLDY    59  50  72 SW12      30.18F
KEMMERER       PTSUNNY   63  37  39 CALM      30.20S
FORT BRIDGER   DRIZZLE   66  43  42 W5        30.18F
ROCK SPRINGS   FAIR      63  45  51 SE10      30.17S
DIXON          FAIR      60  48  64 SE7       30.20R
RAWLINS        FAIR      62  45  53 CALM      30.18S
SARATOGA       FAIR      59  45  58 S7        30.21S
LARAMIE        FAIR      57  45  64 S6        30.21R
CHEYENNE       FAIR      58  49  72 SW5       30.13S
TORRINGTON     FAIR      60  55  83 CALM      30.00R
PINE BLUFFS    FAIR      55  50  82 CALM      30.08R

$$



USA.gov is the U.S. government's official web portal to all federal, state and local government web resources and services.